Regional Weather Roundup
Issued by NWS

Home | Current Version | Previous Version | Text Only | Print | Product List | Glossary Off
Versions: 1 2 3 4 5 6 7 8 9 10 11 12 13 14 15 16 17 18 19 20 21 22 23 24 25 26 27 28

000
ASUS45 KTFX 222010
RWRMT
MONTANA REGIONAL WEATHER ROUNDUP
NATIONAL WEATHER SERVICE GREAT FALLS MT
200 PM MDT THU JUN 22 2017

NOTE: "FAIR" INDICATES FEW OR NO CLOUDS BELOW 12000 FEET WITH NO
SIGNIFICANT WEATHER AND/OR OBSTRUCTIONS TO VISIBILITY.

MTZ001>007-043-222100-
WEST OF THE DIVIDE

CITY           SKY/WX    TMP DP  RH WIND       PRES   REMARKS
KALISPELL      SUNNY     69  33  26 CALM      30.15R
MISSOULA       SUNNY     71  33  24 NW13G18   30.12S
BUTTE          SUNNY     65  24  21 NW16G23   30.15R
MULLAN PASS    SUNNY     53  24  32 VRB6      30.26R
ANACONDA         N/A     63  27  25 E8        30.13R
DEER LODGE       N/A     64  25  22 NW18G33   30.15S
EUREKA           N/A     66  27  22 MISG      30.16S
HAMILTON         N/A     68  23  18 W14G26    30.13R
LIBBY            N/A     68  27  21 N8        30.15S
$$

MTZ008-052>055-222100-
SOUTHWEST MONTANA

CITY           SKY/WX    TMP DP  RH WIND       PRES   REMARKS
BOZEMAN        PTSUNNY   67  29  24 W9        30.09S
DILLON         SUNNY     67  31  26 NW3       30.11S
W YELLOWSTONE  SUNNY     64  21  19 VRB7G20   30.14S
ENNIS          SUNNY     68  19  15 NW20G25   30.16S
THREE FORKS      N/A     69  27  21 NW8       30.07S
$$

MTZ009-010-012-014-046-048-049-054-222100-
EAST SLOPES AND CENTRAL MONTANA

CITY           SKY/WX    TMP DP  RH WIND       PRES   REMARKS
CUT BANK       MOSUNNY   59  35  40 N22G35    30.18R
GREAT FALLS    MOSUNNY   67  28  23 N15G22    30.13R
MALMSTROM AFB  MOSUNNY   65  24  21 NW16G30   30.13R
HELENA         PTSUNNY   68  23  18 N15G22    30.09S
CHOTEAU          N/A     64  32  29 N21G29    30.16R
$$

MTZ011-013-016-021-045-047-050-051-222100-
NORTH CENTRAL MONTANA

CITY           SKY/WX    TMP DP  RH WIND       PRES   REMARKS
HAVRE          CLOUDY    57  39  51 NW26G38   30.11R
LEWISTOWN      MOSUNNY   64  32  30 NW18G29   30.09R
N BAR RANCH      N/A     63  32  31 NW23G32   30.10R
CHINOOK          N/A     57  39  51 NW26G37   30.07R
FORT BENTON      N/A     66  32  28 MISG      30.13R
$$

MTZ017>020-022>027-061-062-222100-
NORTHEAST MONTANA

CITY           SKY/WX    TMP DP  RH WIND       PRES   REMARKS
GLASGOW        PTSUNNY   66  33  29 NW32G45   29.92R
JORDAN           N/A     74  27  17 NW25G38   29.96R
SIDNEY         CLOUDY    69  29  22 W24G35    29.86S
WOLF POINT     PTSUNNY   70  30  22 W31G39    29.89R
MALTA          PTSUNNY   64  36  34 NW30G43   30.00R
PLENTYWOOD       N/A     61  36  39 W46G54    29.80S
POPLAR           N/A     66  30  26 W26G38    29.86S
$$

MTZ028>42-056>058-222100-
SOUTHCENTRAL AND SOUTHEAST MONTANA

CITY           SKY/WX    TMP DP  RH WIND       PRES   REMARKS
BAKER          CLOUDY    70  28  21 NW22G41   29.94S
BILLINGS       MOSUNNY   74  25  16 NW22G35   30.01R
LIVINGSTON     MOSUNNY   71  27  19 W25G35    30.06S
MILES CITY     CLOUDY    69  30  23 W20G25    29.95S
BIG TIMBER     SUNNY     70  28  21 W24G37    30.09R
FORSYTH          N/A     64  39  39 W3        29.98S
ROUNDUP          N/A     71  29  21 NW20      29.93R
$$

REGIONAL REPORTS...DAKOTAS

CITY           SKY/WX    TMP DP  RH WIND       PRES   REMARKS
WILLISTON      CLOUDY    70  33  25 W29G38    29.83S
MINOT          PTSUNNY   72  33  24 W31G43    29.74F
DICKINSON      MOSUNNY   72  29  20 NW24G31   29.87R
BEACH          CLOUDY    66  32  28 W17G26    29.94F
CROSBY         CLOUDY    63  37  39 NW37G45   29.79R
TIOGA          CLOUDY    66  34  30 W33G41    29.81S
WATFORD CITY     N/A     66  36  32 W26       29.83F
BISMARCK       SUNNY     78  33  19 W14G29    29.81F
GRAND FORKS    PTSUNNY   76  43  30 W25G35    29.67S
FARGO          MOSUNNY   79  45  29 W21G32    29.70S
BUFFALO SD       N/A     74  33  22 NW23G29   29.86F
RAPID CITY     SUNNY     74  41  30 NW14G23   29.94S
$$

REGIONAL REPORTS...WYOMING/IDAHO/WASHINGTON

CITY           SKY/WX    TMP DP  RH WIND       PRES   REMARKS
GILLETTE       MOSUNNY   70  35  27 N10       30.00S
SHERIDAN       SUNNY     72  40  31 N7        30.01S
BUFFALO WY     MOSUNNY   67  39  35 MISG      30.05S
CODY           SUNNY     69  33  26 N13G22    30.05F
YELLOWSTONE LA   N/A     61  17  18 SW8       30.19F
IDAHO FALLS    SUNNY     73  32  22 N6        30.10F
SALMON         SUNNY     70  28  21 N8        30.10S
BOISE          SUNNY     78  30  17 NW22G31   30.09F
SPOKANE        MOSUNNY   72  25  17 NW10      30.21S
$$

REGIONAL REPORTS...ALBERTA

CITY           SKY/WX    TMP DP  RH WIND       PRES   REMARKS
EDMONTON       PTSUNNY   57  39  51 NW16G29   30.13S
CALGARY        PTSUNNY   59  34  38 N22G29    30.18R
LETHBRIDGE     PTSUNNY   59  41  51 N18G28    30.18S
MEDICINE HAT   CLOUDY    57  45  62 NW24G33   30.09S
WATERTON GATE    N/A     55  36  47 NE8         N/A
MILK RIVER       N/A     57  43  58 N26G33      N/A
$$

REGIONAL REPORTS...SASKATCHEWAN

CITY           SKY/WX    TMP DP  RH WIND       PRES   REMARKS
SWIFT CURRENT  LGT RAIN  50  48  93 NW31G39   29.90R
REGINA         LGT RAIN  52  50  93 W21G28    29.75R FOG
SASKATOON      CLOUDY    54  46  76 NW25G33   29.83R
CYPRESS HILLS    N/A     43  41  93 NW14G28     N/A
VAL MARIE        N/A     52  45  76 W26G35      N/A
ROCKGLEN         N/A     52  43  71 W24G38      N/A
ASSINIBOIA       N/A     55  41  58 NW21        N/A
$$




USA.gov is the U.S. government's official web portal to all federal, state and local government web resources and services.